TimeHST,TemperatureF,Dew PointF,Humidity,Sea Level PressureIn,VisibilityMPH,Wind Direction,Wind SpeedMPH,Gust SpeedMPH,PrecipitationIn,Events,Conditions,WindDirDegrees,DateUTC
12:57 AM,74.1,66.9,78,30.07,7.0,ENE,5.8,17.3,0.00,Rain,Light Rain,70,2013-04-09 10:57:00
1:57 AM,74.1,68.0,81,30.04,10.0,East,10.4,-,0.00,,Mostly Cloudy,80,2013-04-09 11:57:00
2:57 AM,74.1,69.1,84,30.01,7.0,East,9.2,-,N/A,,Mostly Cloudy,80,2013-04-09 12:57:00
3:22 AM,73.4,68.0,83,30.02,6.2,East,6.9,-,N/A,,Overcast,80,2013-04-09 13:22:00
3:57 AM,74.1,68.0,81,30.00,7.0,East,8.1,-,N/A,,Mostly Cloudy,80,2013-04-09 13:57:00
4:05 AM,73.4,66.2,78,30.01,10.0,East,8.1,-,N/A,,Scattered Clouds,90,2013-04-09 14:05:00
4:57 AM,72.7,66.9,82,30.00,10.0,East,9.2,-,N/A,,Scattered Clouds,90,2013-04-09 14:57:00
5:09 AM,73.4,66.2,78,30.01,6.2,ESE,6.9,-,N/A,,Mostly Cloudy,110,2013-04-09 15:09:00
5:17 AM,73.4,66.2,78,30.01,6.2,Variable,5.8,-,N/A,,Scattered Clouds,0,2013-04-09 15:17:00
5:57 AM,72.7,66.9,82,30.00,7.0,East,4.6,-,N/A,,Scattered Clouds,90,2013-04-09 15:57:00
6:57 AM,72.7,66.9,82,30.02,10.0,ESE,4.6,-,N/A,,Scattered Clouds,110,2013-04-09 16:57:00
7:57 AM,73.4,66.9,80,30.04,10.0,ESE,8.1,-,N/A,,Scattered Clouds,110,2013-04-09 17:57:00
8:57 AM,77.0,66.9,71,30.05,10.0,East,9.2,-,N/A,,Scattered Clouds,100,2013-04-09 18:57:00
9:57 AM,82.4,66.9,59,30.06,10.0,East,10.4,-,N/A,,Scattered Clouds,80,2013-04-09 19:57:00
10:57 AM,82.4,66.0,57,30.06,10.0,East,8.1,-,N/A,,Clear,90,2013-04-09 20:57:00
11:57 AM,82.4,66.9,59,30.05,10.0,ENE,10.4,16.1,N/A,,Partly Cloudy,60,2013-04-09 21:57:00
12:57 PM,82.4,68.0,62,30.03,10.0,NE,8.1,-,N/A,,Scattered Clouds,50,2013-04-09 22:57:00
1:57 PM,82.4,66.9,59,30.01,10.0,NE,6.9,-,N/A,,Scattered Clouds,50,2013-04-09 23:57:00
2:57 PM,80.6,66.9,63,30.00,10.0,NE,6.9,-,N/A,,Scattered Clouds,50,2013-04-10 00:57:00
3:57 PM,80.6,66.9,63,29.99,10.0,NE,8.1,-,N/A,,Scattered Clouds,50,2013-04-10 01:57:00
4:57 PM,80.6,66.0,61,30.00,10.0,ENE,8.1,-,N/A,,Scattered Clouds,60,2013-04-10 02:57:00
5:57 PM,78.8,66.0,65,30.01,10.0,ENE,6.9,-,N/A,,Mostly Cloudy,60,2013-04-10 03:57:00
6:57 PM,78.8,66.0,65,30.03,10.0,East,9.2,-,N/A,,Scattered Clouds,80,2013-04-10 04:57:00
7:06 PM,-9999,-9999,N/A,30.05,6.2,East,8.1,-,N/A,,Mostly Cloudy,90,2013-04-10 05:06:00
7:20 PM,78.8,64.4,61,30.05,6.2,East,5.8,-,N/A,,Scattered Clouds,100,2013-04-10 05:20:00
7:57 PM,78.8,64.9,62,30.05,10.0,ENE,4.6,-,N/A,,Scattered Clouds,70,2013-04-10 05:57:00
8:57 PM,75.2,64.9,70,30.07,10.0,East,4.6,-,N/A,,Scattered Clouds,80,2013-04-10 06:57:00
9:57 PM,75.2,66.9,75,30.09,10.0,Variable,3.5,-,N/A,,Scattered Clouds,0,2013-04-10 07:57:00
10:13 PM,75.2,66.2,73,30.10,6.2,East,6.9,-,N/A,,Mostly Cloudy,90,2013-04-10 08:13:00
10:40 PM,75.2,66.2,73,30.10,6.2,Variable,4.6,-,N/A,,Scattered Clouds,0,2013-04-10 08:40:00
10:57 PM,75.2,66.9,75,30.09,10.0,East,5.8,-,N/A,,Scattered Clouds,80,2013-04-10 08:57:00
11:04 PM,-9999,-9999,N/A,30.10,6.2,East,6.9,-,N/A,,Overcast,80,2013-04-10 09:04:00
11:28 PM,73.4,69.8,88,30.09,6.2,East,8.1,19.6,0.00,Rain,Rain,80,2013-04-10 09:28:00
11:37 PM,73.4,69.8,88,30.09,6.2,ENE,10.4,16.1,0.00,Rain,Light Rain,70,2013-04-10 09:37:00
11:57 PM,73.4,69.1,86,30.07,-9999.0,East,9.2,-,0.00,,Overcast,80,2013-04-10 09:57:00